• In Sweden
  • List of Countries
  • For 7 days
  • Water Temperature
  • Satellite Maps
  • Weather Map
  • Weather Widgets
  • user-avatar
    Login

    Hourly Weather Matlock

    Today, 24 September, Sunday

    Time Temperature Precipitation Wind Pressure Humidity
    00:00 +12°C° 0 mm 3 mps 747 mmHg 75%
    01:00 +12°C° 0 mm 3 mps 747 mmHg 74%
    02:00 +11°C° 0 mm 3 mps 747 mmHg 73%
    03:00 +11°C° 0 mm 3 mps 747 mmHg 73%
    04:00 +11°C° 0 mm 3 mps 747 mmHg 76%
    05:00 +10°C° 0 mm 3 mps 747 mmHg 79%
    06:00 +10°C° 0 mm 3 mps 747 mmHg 82%
    07:00 +11°C° 0 mm 3 mps 747 mmHg 80%
    08:00 +13°C° 0 mm 4 mps 747 mmHg 77%
    09:00 +14°C° 0 mm 4 mps 747 mmHg 75%
    10:00 +15°C° 0 mm 4 mps 747 mmHg 73%
    11:00 +17°C° 0 mm 4 mps 747 mmHg 70%
    12:00 +17°C° 0 mm 5 mps 747 mmHg 68%
    13:00 +18°C° 0 mm 4 mps 747 mmHg 68%
    14:00 +19°C° 0 mm 4 mps 747 mmHg 68%
    15:00 +19°C° 0 mm 4 mps 747 mmHg 67%
    16:00 +18°C° 0 mm 4 mps 747 mmHg 70%
    17:00 +17°C° 0 mm 3 mps 747 mmHg 72%
    18:00 +17°C° 0 mm 3 mps 747 mmHg 74%
    19:00 +16°C° 0 mm 3 mps 747 mmHg 75%
    20:00 +16°C° 0 mm 3 mps 747 mmHg 77%
    21:00 +16°C° 0 mm 3 mps 747 mmHg 79%
    22:00 +14°C° 0.1 mm 3 mps 747 mmHg 81%
    23:00 +14°C° 0.1 mm 3 mps 747 mmHg 84%

    Tomorrow, 25 September, Monday

    Time Temperature Precipitation Wind Pressure Humidity
    00:00 +15°C° 0.1 mm 2 mps 747 mmHg 87%
    01:00 +14°C° 0.6 mm 2 mps 747 mmHg 88%
    02:00 +14°C° 0.6 mm 2 mps 747 mmHg 90%
    03:00 +14°C° 0.6 mm 2 mps 747 mmHg 91%
    04:00 +14°C° 2 mm 2 mps 747 mmHg 92%
    05:00 +14°C° 2 mm 2 mps 747 mmHg 93%
    06:00 +14°C° 2 mm 2 mps 747 mmHg 95%
    07:00 +14°C° 0.8 mm 2 mps 747 mmHg 93%
    08:00 +14°C° 0.8 mm 2 mps 747 mmHg 92%
    09:00 +15°C° 0.8 mm 2 mps 747 mmHg 91%
    10:00 +15°C° 0.2 mm 2 mps 747 mmHg 87%
    11:00 +16°C° 0.2 mm 2 mps 747 mmHg 83%
    12:00 +17°C° 0.2 mm 2 mps 747 mmHg 79%
    13:00 +17°C° 0.1 mm 2 mps 747 mmHg 79%
    14:00 +17°C° 0.1 mm 2 mps 748 mmHg 79%
    15:00 +17°C° 0.1 mm 2 mps 748 mmHg 78%
    16:00 +16°C° 0.1 mm 1 mps 748 mmHg 81%
    17:00 +16°C° 0.1 mm 1 mps 748 mmHg 83%
    18:00 +15°C° 0.1 mm 1 mps 748 mmHg 86%
    19:00 +15°C° 0 mm 1 mps 748 mmHg 87%
    20:00 +14°C° 0 mm 1 mps 748 mmHg 89%
    21:00 +14°C° 0 mm 1 mps 749 mmHg 90%
    22:00 +14°C° 0 mm 1 mps 749 mmHg 90%
    23:00 +14°C° 0 mm 1 mps 749 mmHg 91%

    Day after tomorrow, 26 September, Tuesday

    Time Temperature Precipitation Wind Pressure Humidity
    00:00 +14°C° 0 mm 1 mps 749 mmHg 91%
    01:00 +14°C° 0 mm 1 mps 749 mmHg 92%
    02:00 +13°C° 0 mm 1 mps 749 mmHg 93%
    03:00 +13°C° 0 mm 1 mps 749 mmHg 94%
    04:00 +13°C° 0 mm 1 mps 749 mmHg 94%
    05:00 +12°C° 0 mm 0 mps 749 mmHg 94%
    06:00 +12°C° 0 mm 0 mps 749 mmHg 95%
    07:00 +12°C° 0 mm 0 mps 749 mmHg 92%
    08:00 +13°C° 0 mm 0 mps 749 mmHg 89%
    09:00 +15°C° 0 mm 1 mps 749 mmHg 85%
    10:00 +16°C° 0.1 mm 1 mps 749 mmHg 81%
    11:00 +18°C° 0.1 mm 1 mps 749 mmHg 76%
    12:00 +19°C° 0.1 mm 1 mps 749 mmHg 71%
    13:00 +19°C° 0.1 mm 1 mps 749 mmHg 70%
    14:00 +19°C° 0.1 mm 1 mps 749 mmHg 69%
    15:00 +19°C° 0.1 mm 1 mps 749 mmHg 67%
    16:00 +18°C° 0.1 mm 1 mps 749 mmHg 72%
    17:00 +16°C° 0.1 mm 1 mps 749 mmHg 76%
    18:00 +15°C° 0.1 mm 1 mps 749 mmHg 81%
    19:00 +15°C° 0 mm 1 mps 749 mmHg 83%
    20:00 +14°C° 0 mm 1 mps 749 mmHg 85%
    21:00 +14°C° 0 mm 1 mps 749 mmHg 87%
    22:00 +14°C° 0 mm 2 mps 749 mmHg 88%
    23:00 +13°C° 0 mm 2 mps 749 mmHg 90%

    27 September, Wednesday

    Time Temperature Precipitation Wind Pressure Humidity
    00:00 +13°C° 0 mm 2 mps 748 mmHg 91%
    01:00 +13°C° 0 mm 2 mps 748 mmHg 92%
    02:00 +13°C° 0 mm 2 mps 748 mmHg 92%
    03:00 +12°C° 0 mm 2 mps 748 mmHg 93%
    04:00 +11°C° 0 mm 3 mps 748 mmHg 93%
    05:00 +11°C° 0 mm 3 mps 747 mmHg 94%
    06:00 +11°C° 0 mm 3 mps 747 mmHg 94%
    07:00 +12°C° 0 mm 4 mps 747 mmHg 89%
    08:00 +13°C° 0 mm 4 mps 747 mmHg 84%
    09:00 +14°C° 0 mm 5 mps 747 mmHg 79%
    10:00 +15°C° 0 mm 5 mps 747 mmHg 74%
    11:00 +16°C° 0 mm 6 mps 747 mmHg 68%
    12:00 +17°C° 0 mm 6 mps 747 mmHg 63%
    13:00 +17°C° 0.1 mm 6 mps 746 mmHg 65%
    14:00 +17°C° 0.1 mm 5 mps 746 mmHg 67%
    15:00 +17°C° 0.1 mm 5 mps 745 mmHg 68%
    16:00 +16°C° 0.9 mm 5 mps 745 mmHg 73%
    17:00 +15°C° 0.9 mm 6 mps 745 mmHg 77%
    18:00 +14°C° 0.9 mm 6 mps 745 mmHg 82%
    19:00 +13°C° 1.2 mm 6 mps 745 mmHg 84%
    20:00 +13°C° 1.2 mm 6 mps 745 mmHg 86%
    21:00 +13°C° 1.2 mm 6 mps 745 mmHg 88%
    22:00 +13°C° 0.2 mm 6 mps 745 mmHg 89%
    23:00 +13°C° 0.2 mm 5 mps 746 mmHg 91%

    28 September, Thursday

    Time Temperature Precipitation Wind Pressure Humidity
    00:00 +13°C° 0.2 mm 4 mps 746 mmHg 92%
    01:00 +13°C° 0 mm 4 mps 746 mmHg 92%
    02:00 +12°C° 0 mm 3 mps 746 mmHg 91%
    03:00 +12°C° 0 mm 3 mps 747 mmHg 91%
    04:00 +11°C° 0 mm 3 mps 747 mmHg 91%
    05:00 +12°C° 0 mm 2 mps 748 mmHg 91%
    06:00 +10°C° 0 mm 2 mps 748 mmHg 91%
    07:00 +12°C° 0 mm 2 mps 749 mmHg 86%
    08:00 +13°C° 0 mm 2 mps 749 mmHg 82%
    09:00 +14°C° 0 mm 2 mps 750 mmHg 78%
    10:00 +15°C° 0 mm 2 mps 750 mmHg 74%
    11:00 +16°C° 0 mm 2 mps 750 mmHg 69%
    12:00 +17°C° 0 mm 2 mps 750 mmHg 64%
    13:00 +17°C° 0 mm 2 mps 750 mmHg 63%
    14:00 +17°C° 0 mm 2 mps 749 mmHg 62%
    15:00 +18°C° 0 mm 2 mps 749 mmHg 60%
    16:00 +17°C° 0 mm 3 mps 749 mmHg 65%
    17:00 +16°C° 0 mm 3 mps 749 mmHg 70%
    18:00 +14°C° 0 mm 3 mps 748 mmHg 74%
    19:00 +14°C° 0 mm 3 mps 748 mmHg 77%
    20:00 +13°C° 0 mm 3 mps 748 mmHg 79%
    21:00 +13°C° 0 mm 4 mps 748 mmHg 82%
    22:00 +13°C° 0 mm 4 mps 748 mmHg 81%
    23:00 +12°C° 0 mm 5 mps 747 mmHg 81%

    29 September, Friday

    Time Temperature Precipitation Wind Pressure Humidity
    00:00 +12°C° 0 mm 5 mps 747 mmHg 81%
    01:00 +12°C° 0.1 mm 5 mps 746 mmHg 81%
    02:00 +11°C° 0.1 mm 6 mps 745 mmHg 82%
    03:00 +11°C° 0.1 mm 6 mps 745 mmHg 82%
    04:00 +13°C° 0.6 mm 6 mps 744 mmHg 83%
    05:00 +13°C° 0.6 mm 6 mps 744 mmHg 85%
    06:00 +13°C° 0.6 mm 6 mps 743 mmHg 87%
    07:00 +14°C° 2.4 mm 6 mps 743 mmHg 88%
    08:00 +14°C° 2.4 mm 6 mps 743 mmHg 90%
    09:00 +15°C° 2.4 mm 6 mps 742 mmHg 91%
    10:00 +15°C° 1.4 mm 5 mps 742 mmHg 90%
    11:00 +15°C° 1.4 mm 5 mps 742 mmHg 89%
    12:00 +16°C° 1.4 mm 5 mps 742 mmHg 88%
    13:00 +15°C° 0.3 mm 5 mps 742 mmHg 86%
    14:00 +15°C° 0.3 mm 4 mps 742 mmHg 84%
    15:00 +15°C° 0.3 mm 4 mps 742 mmHg 82%
    16:00 +14°C° 0 mm 4 mps 742 mmHg 82%
    17:00 +13°C° 0 mm 4 mps 742 mmHg 83%
    18:00 +11°C° 0 mm 3 mps 743 mmHg 84%
    19:00 +11°C° 0 mm 3 mps 743 mmHg 84%
    20:00 +10°C° 0 mm 3 mps 744 mmHg 85%
    21:00 +10°C° 0 mm 4 mps 744 mmHg 85%
    22:00 +8°C° 0 mm 4 mps 744 mmHg 85%
    23:00 +8°C° 0 mm 4 mps 744 mmHg 86%
    Show more